Location: New Canada
(47.1017°N, 68.5042°W)
Time: 23:14:24
(UTC+00:00)

RS-44 - Pass Details

Date: 10 April 2023
Orbit: 1175 x 1510 km, 82.5° (Epoch: 02 June)

Event Time Altitude Azimuth Distance (km) Brightness Sun altitude
Rises 03:30:49 0° 353° (N) 4,467 ? -33.2°
Reaches altitude 10° 03:33:57 10° 3° (N) 3,533 ? -33.4°
Maximum altitude 03:41:41 36° 67° (ENE) 2,178 ? -33.8°
Enters shadow 03:43:07 34° 86° (E) 2,249 ? -33.8°
